www.pogodaiklimat.ru

Погода и климат >> Архив погоды >> Россия >> Ленинградская область >> Озерки


ПОГОДА в Озерках

  • Прогноз погоды в Озерках
  • Монитор погоды в Озерках

АРХИВ ПОГОДЫ в Озерках

Время (UTC), дата Ветер
(напр.,м/с)
 
Видим.   Явления Облачность Т
(С)
Тd
(С)
f
(%)
Тe
(С)
Тes
(С)
Комфортность P
(гПа)
Po
(гПа)
Тmin
(С)
Tmax
(С)
R
(мм)
R24
(мм)
S
(см)
15 12.08 ЮВ 1 20 км н/о +20.8 +15.1 70 +25 +25 комфорт 1012.3 1011.0 0.2
18 12.08 СЗ 3 20 км в посл. час гроза {ливн. осадки} 10/0
[Ac und]
+17.1 +15.5 90 +17 +17 1012.2 1010.9 +21.0 7
21 12.08 В 2 10 км н/о +15.2 +14.7 97 +15 +15 1010.8 1009.5
00 13.08 ЮВ 2 14 км н/о +15.2 +15.0 99 +15 +15 1010.1 1008.8
03 13.08 штиль 0 20 км н/о +15.2 +14.7 97 +15 +15 1009.3 1008.0 +15.1 11
06 13.08 СЗ 1 20 км {ливн. осадки} 3/1 600 м
[Sc diur, vesp Ac As Ci fib]
+16.5 +15.0 91 +17 +21 1009.1 1007.8 +15.1 6
09 13.08 З 2 20 км н/о +18.0 +15.2 84 +19 +19 1009.5 1008.2
12 13.08 З 2 20 км н/о +18.2 +15.1 82 +19 +19 1008.6 1007.3
15 13.08 н/о н/о 4
18 13.08 штиль 0 20 км 3/0
[Ac trans Ci fib]
+16.3 +14.1 87 +16 +16 1007.6 1006.3 +19.3
21 13.08 ЮЗ 1 20 км н/о +16.9 +15.3 90 +18 +18 1007.7 1006.4
00 14.08 З 5 20 км н/о +17.3 +15.0 86 +17 +17 1008.2 1006.9
03 14.08 З 4 20 км н/о +16.6 +14.9 90 +16 +16 1008.2 1006.9 +15.3
06 14.08 ЮЗ 4 20 км в посл. час дождь 10/10 1140 м
[Sc diur, vesp]
+16.3 +14.1 87 +16 +16 1008.6 1007.3 +15.3 0.4
09 14.08 ЮЗ 7
{10}
20 км н/о +18.4 +14.6 79 +18 +18 1008.8 1007.5
12 14.08 ЮЗ 3 20 км н/о +19.6 +15.0 75 +22 +22 комфорт 1008.5 1007.2
15 14.08 З 4 20 км н/о +18.0 +14.3 79 +18 +18 1009.0 1007.7 0.3
18 14.08 З 5 20 км 9/0
[Ac As Ci fib]
+16.9 +14.6 86 +16 +16 1008.9 1007.6 +20.2
21 14.08 З 4 20 км н/о +16.7 +13.9 84 +16 +16 1008.5 1007.2
00 15.08 З 6 20 км н/о +16.6 +12.5 77 +16 +16 1008.2 1006.9
03 15.08 З 6 20 км н/о +16.1 +12.2 78 +15 +15 1007.8 1006.5 +16.0
06 15.08 З 8 20 км 8/0
[Ac cast]
+16.2 +14.0 87 +15 +15 1007.7 1006.4 +15.8
09 15.08 З 8-10
{10}
20 км н/о +17.0 +13.3 79 +16 +16 1007.8 1006.5
12 15.08 З 9-12
{12}
17 км н/о +16.1 +13.1 82 +14 +14 1008.6 1007.3
15 15.08 З 9-11
{11}
20 км н/о +17.1 +13.6 80 +16 +16 1009.3 1008.0
18 15.08 З 9-11
{12}
20 км {дождь} ясно +16.7 +13.7 82 +15 +15 1010.5 1009.2 +18.2 0.0
21 15.08 З 9-11
{12}
20 км н/о +16.7 +13.8 83 +15 +15 1011.5 1010.2
00 16.08 СЗ 3
{11}
20 км н/о +15.6 +11.6 77 +15 +15 1012.9 1011.6
03 16.08 СЗ 3 20 км н/о +14.2 +10.0 76 +13 +13 1014.1 1012.8 +13.8
06 16.08 З 4 20 км 1/1 600 м
[Sc]
+16.8 +12.9 78 +16 +19 1015.2 1013.9 +11.8
09 16.08 З 4 20 км н/о +17.7 +13.8 78 +17 +17 1015.9 1014.6
12 16.08 З 5 20 км н/о +17.8 +13.2 74 +17 +17 1016.5 1015.2
15 16.08 ЮЗ 2 20 км н/о +18.4 +13.3 72 +19 +19 1016.4 1015.1
18 16.08 В 1 20 км 3/0
[Ac trans Ci fib]
+14.3 +12.5 89 +15 +15 1016.7 1015.4 +18.9
21 16.08 В 1 20 км н/о +12.8 +11.2 90 +13 +13 1017.1 1015.8
00 17.08 н/о н/о
03 17.08 В 1 20 км н/о +14.2 +11.4 83 +15 +15 1017.8 1016.5 +11.8
06 17.08 Ю 1 20 км ясно +18.2 +11.4 64 +20 +24 1018.2 1016.9 +11.8
09 17.08 ЮЗ 3 20 км н/о +21.0 +9.4 47 +23 +23 комфорт 1018.3 1017.0
12 17.08 ЮВ 1 20 км н/о +22.9 +8.7 40 +24 +24 комфорт 1017.6 1016.3
15 17.08 ЮВ 1 19 км н/о +23.2 +8.7 40 +25 +25 комфорт 1016.6 1015.3
18 17.08 В 1 >70 км ясно +19.1 +10.3 57 +21 +21 комфорт 1016.5 1015.2 +24.0
21 17.08 В 2 20 км н/о +17.7 +10.3 62 +18 +18 1016.5 1015.2
00 18.08 В 1 20 км н/о +14.6 +10.2 75 +15 +15 1016.7 1015.4
03 18.08 В 2 20 км н/о +12.9 +10.6 86 +12 +12 1015.9 1014.6 +12.5
06 18.08 В 1 >70 км ясно +19.4 +10.1 55 +22 +26 комфорт 1015.5 1014.2 +12.5
09 18.08 ЮВ 2 20 км н/о +21.9 +6.8 38 +23 +23 комфорт 1014.8 1013.5
12 18.08 ЮВ 2 20 км н/о +22.8 +6.5 35 +23 +23 комфорт 1014.0 1012.7
15 18.08 ЮВ 1 19 км н/о +23.2 +6.5 34 +24 +24 комфорт 1013.5 1012.2
18 18.08 В 1 20 км 3/3 600 м
[Sc]
+17.7 +10.3 62 +19 +19 1013.2 1011.9 +23.8
21 18.08 В 2 20 км н/о +16.6 +11.6 72 +17 +17 1012.4 1011.1
00 19.08 ЮВ 1 20 км н/о +16.3 +12.8 80 +17 +17 1012.4 1011.1
03 19.08 В 2 20 км н/о +15.3 +12.8 85 +15 +15 1011.5 1010.2 +15.0 0.1
06 19.08 В 2 20 км 10/3 600 м
[Sc Ac und]
+18.0 +13.2 74 +19 +19 1010.7 1009.4 +15.0
09 19.08 ЮВ 3 20 км н/о +21.4 +13.6 61 +24 +24 комфорт 1009.3 1008.0

 

Местоположение метеостанции Озерки (Ленинградская область, Россия): широта 60.20 долгота 29.00 высота над уровнем моря 11 м.

В архиве по умолчанию представлена погода в Озерках за последнюю неделю. Архивные данные за месяц целиком и за предыдущие месяцы, начиная с января 2011 года, Вы можете получить, выбрав интересующий диапазон дат из раскрывающегося списка и нажав кнопку "Ввод!".


*Определитесь, кто Вы:
робот инопланетянин человек

Внимание! Время в таблицах - всемирное. Для получения местного времени необходимо прибавить поправку, которая равна 3 ч.

Смотрите также архив погоды в соседних городах и на ближайших метеорологических станциях:

Погода в Рощино (Ленинградская область, Россия) (35 км)
Погода в Шепелево (Ленинградская область, Россия) (42 км)
Погода в Сосновом Бору (Ленинградская область, Россия) (43 км)
Погода в Кронштадте (город Санкт-Петербург, Россия) (49 км)
Погода в Ломоносове (город Санкт-Петербург, Россия) (53 км)
Погода в Лисьем Носу (город Санкт-Петербург, Россия) (58 км)
Погода в Выборге (Ленинградская область, Россия) (60 км)
Погода в Санкт-Петербурге (город Санкт-Петербург, Россия) (77 км)
Погода в Коивуниеми (Финляндия) (82 км)
Погода в Сосново (Ленинградская область, Россия) (82 км)

Пояснения к столбцам:

Ветер - указаны скорость ветра в м/с - средняя за 10 мин, порывы в срок и между сроками (в фигурных скобках) и направление, откуда дует ветер: С - северный, СВ - северо-восточный, В - восточный, ЮВ - юго-восточный, Ю - южный, ЮЗ - юго-западный, З - западный, СЗ - северо-западный.
Видимость - горизонтальная дальность видимости в метрах или километрах. При видимости от 1 до 10 км при отсутствии осадков обычно наблюдается дымка, при ухудшении видимости до 1 км и менее - туман. В сухую погоду видимость может ухудшаться дымом, пылью или мглою.
Явления - указаны атмосферные явления, наблюдавшиеся в срок или в последний час перед сроком; фигурными скобками обозначены явления, наблюдавшиеся между сроками (за 1-3 часа до срока); квадратными скобками обозначены град или гололедные отложения с указанием их диаметра в мм.
Облачность - указаны через наклонную черту общая и нижняя облачность в баллах и высота нижней границы облаков в метрах; квадратными скобками обозначены формы облаков: Ci - перистые, Cs - перисто-слоистые, Cc - перисто-кучевые, Ac - высококучевые, As - высокослоистые, Sc - слоисто-кучевые, Ns - слоисто-дождевые, Cu - кучевые, Cb - кучево-дождевые. Подробнее классификацию облаков см. в Атласе облаков (PDF).
T - Температура воздуха - температура, измеренная на высоте 2 м над землей.
Td - Температура точки росы - температура, при понижении до которой содержащийся в воздухе водяной пар достигнет насыщения.
f - Относительная влажность воздуха - влажноcть воздуха, измеренная на высоте 2 м над землей.
Te - Эффективная температура - температура, которую ощущает одетый по сезону человек в тени. Характеристика душности погоды. При расчете учитывается влияние влажности воздуха и скорости ветра на теплоощущения человека.
Tes - Эффективная температура на солнце - температура, которую ощущает человек, с поправкой на солнечный нагрев. Характеристика знойности погоды. Зависит от высоты солнца над горизонтом, облачности и скорости ветра. Ночью, в пасмурную погоду, а также при ветре 12 м/с и более поправка равна нулю.
P - Атмосферное давление - приведенное к уровню моря атмосферное давление.
Po - Атмосферное давление - измеренное на уровне метеостанции атмосферное давление.
Tmin - Минимальная температура - минимум температуры воздуха на высоте 2 м над землей.
Tmax - Максимальная температура - максимум температуры воздуха на высоте 2 м над землей.
R - Количество осадков - Количество выпавших осадков за период времени, мм. При наведении курсора мыши на число - период времени, за который выпало указанное количество осадков.
R24 - Количество осадков - Количество выпавших осадков за 24 часа, мм.
S - Снежный покров - Высота снежного покрова, см. При наведении курсора мыши на число - состояние снежного покрова и степень покрытия местности в баллах.